CW5111 Weather Reports


time (UTC)temp
F
wind
direction
speed
knots
gust
knots
rain 1hr
in
rain 24hr
in
rain mn
in
humidity
%
barometer
mb
20260508063003 50 105 1.7 3.5 0.00 0.00 0.00 82 1016.2
20260508061503 49 95 0.9 2.6 0.00 0.00 0.00 84 1016.1
20260508060004 48 134 0.9 2.6 0.00 0.00 0.00 84 1016.1
20260508054503 48 142 1.7 4.3 0.00 0.00 0.00 85 1016.0
20260508051503 47 149 0.9 2.6 0.00 0.00 0.00 86 1016.0
20260508050004 46 145 1.7 3.5 0.00 0.00 0.00 87 1015.9
20260508044503 46 146 0.9 1.7 0.00 0.00 0.00 87 1015.8
20260508043004 46 157 0.9 1.7 0.00 0.00 0.00 87 1015.7
20260508041504 46 142 0.9 1.7 0.00 0.00 0.00 86 1015.6
20260508034504 47 123 0.9 1.7 0.00 0.00 0.00 85 1015.6
20260508033003 47 140 0.9 1.7 0.00 0.00 0.00 84 1015.7
20260508031503 48 123 0.9 1.7 0.00 0.00 0.00 83 1015.7
20260508030005 48 155 1.7 5.2 0.00 0.00 0.00 83 1015.8
20260508024504 48 179 1.7 3.5 0.00 0.00 0.00 84 1015.8
20260508023003 48 134 0.9 3.5 0.00 0.00 0.00 84 1015.8
20260508021503 48 145 0.9 1.7 0.00 0.00 0.00 84 1015.7
20260508020004 48 138 0.9 2.6 0.00 0.00 0.00 83 1015.6
20260508014504 48 118 0.9 2.6 0.00 0.00 0.00 83 1015.6
20260508010004 49 162 0.9 2.6 0.00 0.00 0.00 82 1015.7
20260508004504 49 151 1.7 3.5 0.00 0.00 0.00 81 1015.7
20260508003004 50 154 0.9 2.6 0.00 0.00 0.00 81 1015.7
20260508001504 50 153 1.7 3.5 0.00 0.00 0.00 80 1015.8
20260508000004 50 152 1.7 2.6 0.00 0.00 0.00 80 1015.8
20260507234504 50 148 1.7 2.6 0.00 0.00 0.00 79 1015.8
20260507231504 50 148 1.7 2.6 0.00 0.00 0.00 79 1015.7
20260507230006 50 145 0.9 1.7 0.00 0.00 0.00 78 1015.8
20260507224504 50 142 0.9 2.6 0.00 0.00 0.00 78 1015.7
20260507223003 51 134 0.9 2.6 0.00 0.00 0.00 78 1015.7
20260507221503 51 141 0.9 1.7 0.00 0.00 0.00 77 1015.7
20260507220004 51 149 0.9 2.6 0.00 0.00 0.00 76 1015.7
20260507214503 51 143 1.7 4.3 0.00 0.00 0.00 75 1015.7
20260507211503 52 138 1.7 2.6 0.00 0.00 0.00 74 1015.6
20260507210004 52 168 0.9 2.6 0.00 0.00 0.00 73 1015.6
20260507204504 52 214 0.9 2.6 0.00 0.00 0.00 72 1015.5
20260507203004 53 247 0.9 3.5 0.00 0.00 0.00 71 1015.3
20260507200004 53 214 0.9 1.7 0.00 0.00 0.00 68 1015.1
20260507194504 54 213 0.9 4.3 0.00 0.00 0.00 66 1015.0
20260507193003 54 198 0.9 2.6 0.00 0.00 0.00 65 1014.9
20260507191504 55 207 0.9 2.6 0.00 0.00 0.00 64 1014.9
20260507190005 55 218 1.7 4.3 0.00 0.00 0.00 62 1014.8
20260507184504 56 235 1.7 3.5 0.00 0.00 0.00 61 1014.7
20260507183003 56 242 1.7 4.3 0.00 0.00 0.00 59 1014.6
20260507181504 56 209 1.7 4.3 0.00 0.00 0.00 57 1014.5
20260507180004 57 237 2.6 5.2 0.00 0.00 0.00 55 1014.3
20260507174504 57 201 1.7 4.3 0.00 0.00 0.00 54 1014.4
20260507171503 58 156 3.5 7.8 0.00 0.00 0.00 51 1014.3
20260507170005 59 186 1.7 6.1 0.00 0.00 0.00 50 1014.3
20260507164503 59 143 2.6 8.7 0.00 0.00 0.00 50 1014.4
20260507163004 59 160 2.6 7.8 0.00 0.00 0.00 51 1014.4
20260507160004 60 140 3.5 7.0 0.00 0.00 0.00 48 1014.4
20260507154504 60 131 2.6 7.8 0.00 0.00 0.00 47 1014.4
20260507153004 60 153 3.5 7.8 0.00 0.00 0.00 47 1014.5
20260507151504 62 147 3.5 9.6 0.00 0.00 0.00 45 1014.5
20260507150005 60 114 2.6 6.1 0.00 0.00 0.00 46 1014.6
20260507144503 60 172 1.7 6.1 0.00 0.00 0.00 46 1014.7
20260507143004 62 157 2.6 7.0 0.00 0.00 0.00 45 1014.8
20260507141504 62 183 2.6 6.1 0.00 0.00 0.00 42 1014.9
20260507140006 63 139 1.7 5.2 0.00 0.00 0.00 42 1015.0
20260507134503 61 132 2.6 8.7 0.00 0.00 0.00 46 1015.1
20260507133003 61 147 1.7 5.2 0.00 0.00 0.00 45 1015.1
20260507131504 60 131 2.6 6.1 0.00 0.00 0.00 47 1015.2
20260507130003 59 125 2.6 5.2 0.00 0.00 0.00 46 1015.3
20260507124503 61 173 2.6 7.0 0.00 0.00 0.00 44 1015.3
20260507123002 63 172 3.5 7.8 0.00 0.00 0.00 47 1015.3
20260507121502 61 122 1.7 5.2 0.00 0.00 0.00 47 1015.2
20260507120004 60 155 1.7 6.1 0.00 0.00 0.00 52 1015.5
20260507113002 59 187 2.6 7.0 0.00 0.00 0.00 53 1015.7
20260507111503 58 213 1.7 5.2 0.00 0.00 0.00 59 1015.8
20260507110003 57 190 2.6 7.0 0.00 0.00 0.00 59 1015.8
20260507104503 56 191 1.7 5.2 0.00 0.00 0.00 63 1016.0
20260507103002 55 150 1.7 4.3 0.00 0.00 0.00 65 1016.0
20260507101503 55 150 2.6 6.1 0.00 0.00 0.00 64 1016.1
20260507100004 55 121 2.6 5.2 0.00 0.00 0.00 66 1016.1
20260507094503 54 122 2.6 6.1 0.00 0.00 0.00 71 1016.0
20260507093002 54 108 2.6 5.2 0.00 0.00 0.00 73 1016.1
20260507091503 53 119 2.6 6.1 0.00 0.00 0.00 73 1016.1
20260507090004 53 129 2.6 5.2 0.00 0.00 0.00 76 1016.1
20260507084503 52 138 1.7 5.2 0.00 0.00 0.00 76 1016.1
20260507081503 50 103 1.7 4.3 0.00 0.00 0.00 79 1016.1
20260507074502 48 101 1.7 5.2 0.00 0.00 0.00 82 1016.1
20260507073004 47 131 2.6 7.0 0.00 0.00 0.00 83 1016.2
20260507071503 47 93 1.7 3.5 0.00 0.00 0.00 85 1016.1
20260507070006 46 135 1.7 4.3 0.00 0.00 0.00 86 1016.1